TimeEST,TemperatureF,Dew PointF,Humidity,Sea Level PressureIn,VisibilityMPH,Wind Direction,Wind SpeedMPH,Gust SpeedMPH,PrecipitationIn,Events,Conditions,WindDirDegrees,DateUTC
12:33 AM,30.2,21.2,69,29.87,10.0,West,12.7,20.7,N/A,,Overcast,260,2013-01-05 05:33:00
12:54 AM,30.9,21.9,69,29.90,10.0,West,11.5,17.3,N/A,,Overcast,260,2013-01-05 05:54:00
1:54 AM,30.9,21.9,69,29.93,10.0,WSW,12.7,20.7,N/A,,Overcast,250,2013-01-05 06:54:00
2:36 AM,30.2,21.2,69,29.90,9.0,West,8.1,21.9,N/A,,Overcast,260,2013-01-05 07:36:00
2:47 AM,30.2,21.2,69,29.90,10.0,WSW,8.1,-,N/A,,Overcast,250,2013-01-05 07:47:00
2:54 AM,30.9,21.9,69,29.93,10.0,West,9.2,-,N/A,,Overcast,260,2013-01-05 07:54:00
3:29 AM,32.0,23.0,69,29.91,9.0,WNW,10.4,16.1,N/A,,Overcast,290,2013-01-05 08:29:00
3:54 AM,32.0,23.0,69,29.95,8.0,West,10.4,18.4,N/A,,Overcast,280,2013-01-05 08:54:00
4:54 AM,32.0,23.0,69,29.97,10.0,WSW,13.8,20.7,0.00,,Overcast,250,2013-01-05 09:54:00
5:54 AM,32.0,23.0,69,30.01,10.0,WSW,10.4,18.4,N/A,,Overcast,250,2013-01-05 10:54:00
6:54 AM,32.0,23.0,69,30.04,10.0,WSW,11.5,17.3,N/A,,Overcast,240,2013-01-05 11:54:00
7:54 AM,32.0,23.0,69,30.08,10.0,WSW,10.4,16.1,N/A,,Overcast,240,2013-01-05 12:54:00
8:54 AM,32.0,23.0,69,30.13,10.0,West,9.2,-,N/A,,Overcast,260,2013-01-05 13:54:00
9:54 AM,33.1,21.9,64,30.16,10.0,Variable,5.8,20.7,N/A,,Overcast,0,2013-01-05 14:54:00
10:54 AM,34.0,18.0,52,30.18,10.0,NW,9.2,-,N/A,,Partly Cloudy,320,2013-01-05 15:54:00
11:54 AM,35.1,17.1,48,30.19,10.0,NNW,10.4,-,N/A,,Mostly Cloudy,330,2013-01-05 16:54:00
12:54 PM,34.0,14.0,44,30.20,10.0,WNW,10.4,17.3,N/A,,Partly Cloudy,290,2013-01-05 17:54:00
1:54 PM,34.0,12.0,40,30.18,10.0,West,8.1,16.1,N/A,,Clear,280,2013-01-05 18:54:00
2:54 PM,33.1,12.0,42,30.18,10.0,Variable,5.8,-,N/A,,Clear,0,2013-01-05 19:54:00
3:54 PM,33.1,14.0,46,30.20,10.0,West,5.8,-,N/A,,Clear,270,2013-01-05 20:54:00
4:54 PM,30.9,15.1,52,30.21,10.0,SW,5.8,-,N/A,,Clear,220,2013-01-05 21:54:00
5:54 PM,30.0,15.1,54,30.23,10.0,SW,5.8,-,N/A,,Clear,230,2013-01-05 22:54:00
6:54 PM,28.0,15.1,58,30.24,10.0,SSW,4.6,-,N/A,,Clear,200,2013-01-05 23:54:00
7:54 PM,21.0,12.9,71,30.23,10.0,SW,3.5,-,N/A,,Clear,220,2013-01-06 00:54:00
8:54 PM,19.9,12.9,74,30.22,10.0,East,3.5,-,N/A,,Clear,100,2013-01-06 01:54:00
9:54 PM,19.9,12.9,74,30.21,-9999.0,ESE,5.8,-,N/A,,Unknown,120,2013-01-06 02:54:00
10:54 PM,19.9,12.9,74,30.18,10.0,Calm,Calm,-,N/A,,Clear,0,2013-01-06 03:54:00
11:54 PM,23.0,15.1,72,30.16,10.0,Calm,Calm,-,N/A,,Clear,0,2013-01-06 04:54:00